Flag for Ukraine Weather past 2 weeks in Kyiv, Ukraine

Now
28 °F

Ice fog.


Feels Like: 28 °F
Forecast: 25 / 34 °F
Wind: No wind

Location: Kyiv

Current Time: Jan 27, 2015 at 12:39:08 AM

Latest Report: Jan 27, 2015 at 12:00 AM


Visibility: 3 mi

Pressure: 30.12 "Hg

Humidity: 93%

Dew point: 27 °F

Location of KyivLocation

Historic Weather in Kyiv — Graph

°F

Kyiv temperature yesterday

Maximum temperature yesterday: 30 °F (at 11:30 AM)
Minimum temperature yesterday: 27 °F (at 12:00 AM)
Average temperature yesterday: 28 °F

Past Weeks' High & Low Weather Summary

 TemperatureHumidityPressure
High46 °F (Jan 14, 12:30 PM)100% (Jan 15, 4:30 AM)30.27 "Hg (Jan 15, 4:30 AM)
Low23 °F (Jan 16, 3:30 AM)46% (Jan 14, 1:00 PM)29.53 "Hg (Jan 12, 3:00 AM)
Average33 °F92%30.07 "Hg
* Reported Jan 11 11:00 PM — Jan 26 11:00 PM, Kyiv, Weather by CustomWeather, © 2014

Note: Actual official high and low records may vary slightly from our data, if they occured in-between our weather recording intervals... More about our weather records

Advertising

Kyiv weather history for previous 24 hours

 ConditionsComfort  
Time TempWeatherWind HumidityBarometerVisibility
11:00 PM
Jan 26
28 °FIce fog.1 mph93%30.12 "Hg3 mi
10:30 PM28 °FLight snow. Ice fog.No wind93%30.12 "Hg3 mi
10:00 PM28 °FLight snow. Low clouds.1 mph93%30.12 "Hg4 mi
9:30 PM28 °FLight snow. Low clouds.1 mph93%30.12 "Hg4 mi
9:00 PM28 °FLight snow. Low clouds.1 mph93%30.12 "Hg4 mi
8:30 PM28 °FLight snow. Low clouds.No wind93%30.12 "Hg4 mi
8:00 PM28 °FLight snow. Ice fog.1 mph93%30.15 "Hg3 mi
7:30 PM28 °FLight snow. Ice fog.1 mph93%30.15 "Hg3 mi
7:00 PM28 °FLight snow. Ice fog.3 mph93%30.15 "Hg3 mi
6:30 PM30 °FLight snow. Ice fog.3 mph93%30.15 "Hg3 mi
6:00 PM30 °FLight snow. Overcast.3 mph93%30.15 "Hg4 mi
5:30 PM30 °FLight snow. Overcast.1 mph93%30.15 "Hg4 mi
5:00 PM30 °FOvercast.3 mph86%30.15 "Hg4 mi
4:30 PM30 °FOvercast.3 mph93%30.15 "Hg4 mi
4:00 PM30 °FLow clouds.1 mph93%30.15 "Hg4 mi
3:30 PM30 °FOvercast.1 mph93%30.15 "Hg4 mi
3:00 PM30 °FLight snow. Overcast.1 mph86%30.15 "Hg4 mi
2:30 PM30 °FLight snow. Ice fog.No wind93%30.15 "Hg3 mi
2:00 PM30 °FLight snow. Ice fog.1 mph93%30.15 "Hg2 mi
1:30 PM30 °FLight snow. Ice fog.No wind93%30.15 "Hg1 mi
1:00 PM30 °FLight snow. Ice fog.1 mph86%30.15 "Hg2 mi
12:30 PM30 °FLight snow. Ice fog.1 mph86%30.15 "Hg2 mi
12:00 PM28 °FLight snow. Ice fog.No wind93%30.15 "Hg3 mi
11:30 AM30 °FLow clouds.1 mph86%30.18 "Hg4 mi
11:00 AM28 °FLow clouds.1 mph93%30.18 "Hg5 mi
10:30 AM28 °FLow clouds.1 mph93%30.18 "Hg4 mi
10:00 AM28 °FMostly cloudy.1 mph93%30.18 "Hg4 mi
9:30 AM28 °FMostly cloudy.1 mph93%30.18 "Hg4 mi
9:00 AM28 °FMostly cloudy.3 mph93%30.18 "Hg4 mi
8:30 AM28 °FLight snow. Low clouds.3 mph93%30.18 "Hg4 mi
8:00 AM27 °FLight snow. Ice fog.3 mph100%30.15 "Hg3 mi
7:30 AM27 °FLight snow. Ice fog.3 mph100%30.15 "Hg3 mi
7:00 AM27 °FLight snow. Low clouds.3 mph100%30.15 "Hg4 mi
6:30 AM27 °FLight snow. Low clouds.3 mph100%30.15 "Hg4 mi
6:00 AM27 °FPassing clouds.3 mph100%30.15 "Hg5 mi
5:00 AM27 °FPartly cloudy.3 mph100%30.15 "Hg5 mi
4:30 AM27 °FLow clouds.3 mph100%30.15 "Hg4 mi
4:00 AM27 °FLight snow. Low clouds.3 mph100%30.15 "Hg4 mi
3:30 AM27 °FLight snow. Ice fog.3 mph100%30.15 "Hg3 mi
3:00 AM27 °FLight snow. Ice fog.3 mph93%30.15 "Hg3 mi
2:30 AM27 °FLight snow. Low clouds.3 mph93%30.15 "Hg4 mi
2:00 AM27 °FLight snow. Low clouds.3 mph93%30.15 "Hg4 mi
1:30 AM27 °FLight snow. Ice fog.3 mph93%30.15 "Hg3 mi
1:00 AM27 °FLight snow. Ice fog.3 mph93%30.15 "Hg3 mi
12:30 AM27 °FLight snow. Low clouds.3 mph93%30.15 "Hg4 mi
12:00 AM27 °FLight snow. Low clouds.3 mph93%30.15 "Hg4 mi
Weather by CustomWeather, © 2014

See weather overviewHow to use our weather pages